Regional Weather Roundup
Issued by NWS Northern Indiana

Home | Current Version | Previous Version | Text Only | Print | Product List | Glossary Off
Versions: 1 2 3 4 5 6 7 8 9 10 11 12 13 14 15 16 17 18 19 20 21 22 23 24 25 26 27 28 29 30 31 32 33 34 35 36 37 38 39 40 41 42 43 44 45 46 47 48 49 50

422
ASUS43 KIWX 270710
RWRIWX

KIWX WEATHER ROUNDUP
NATIONAL WEATHER SERVICE NORTHERN INDIANA
300 AM EDT MON MAR 27 2017

NOTE: "FAIR" INDICATES FEW OR NO CLOUDS BELOW 12,000 FEET WITH NO
SIGNIFICANT WEATHER AND/OR OBSTRUCTIONS TO VISIBILITY.

* THESE STATIONS ARE NOT UNDER NWS QUALITY CONTROL. THEY ALSO MAY NOT
  REPORT WEATHER SUCH AS PRECIPITATION OR FOG.

INZ001>027-270800-
NORTHERN INDIANA

CITY           SKY/WX    TMP DP  RH WIND       PRES   REMARKS
GARY*          LGT RAIN  52  50  93 SW5       29.90R
VALPARAISO     CLOUDY    51  50  96 SW10      29.91R FOG
MICHIGAN CITY* CLOUDY    50  50 100 SW6       29.89S
LAPORTE*       CLOUDY    50  48  95 W8        29.90R
KNOX*          CLOUDY    50  39  66 SW6       29.90S
SOUTH BEND     CLOUDY    50  50 100 SW10      29.89R
GOSHEN         CLOUDY    52  48  86 SW8       29.88S
MONTICELLO*    CLOUDY    50  49  94 W7        29.92S
LOGANSPORT*    DRIZZLE   50  50 100 W12       29.93R
ROCHESTER*     CLOUDY    54  52  94 W7        29.91S
WARSAW*        CLOUDY    50  46  87 W9        29.89S
ANGOLA*        CLOUDY    52  48  87 W6        29.88S
FORT WAYNE     DRIZZLE   52  51  97 SW8       29.91S FOG
HUNTINGTON*    CLOUDY    51  50  96 W8        29.91F
PERU/GRISSOM   CLOUDY    52  52 100 W14       29.91R
MARION*        CLOUDY    52  50  93 SW6       29.93S FOG

$$
INZ028>050-270800-
CENTRAL INDIANA

CITY           SKY/WX    TMP DP  RH WIND       PRES   REMARKS
LAFAYETTE      CLOUDY    51  50  96 W7        29.93S
KOKOMO*        LGT RAIN  52  51  97 W7        29.93S FOG
MUNCIE*        CLOUDY    55  49  80 SW9       29.93R
INDIANAPOLIS   CLOUDY    50  47  89 SW8       29.94F

$$
MIZ043>046-050>051-056>058-064>065-071>073-077>080-270800-
SOUTHWEST LOWER MICHIGAN

CITY           SKY/WX    TMP DP  RH WIND       PRES   REMARKS
BATTLE CREEK   CLOUDY    52  52 100 W7        29.86F FOG
BENTON HARBOR  CLOUDY    50  47  89 W12       29.87S
COLDWATER*     CLOUDY    52  52  99 SW7       29.86F
HILLSDALE*     MOCLDY    50  50 100 W7        29.86F
HOLLAND        CLOUDY    43  41  93 W5        29.86F FOG
GRAND RAPIDS   CLOUDY    50  50 100 SW13      29.84S FOG
KALAMAZOO      CLOUDY    52  49  89 SW8       29.86F FOG
STURGIS*       CLOUDY    51  50  96 SW6       29.87S
THREE RIVERS*  CLOUDY    51  51 100 SW6       29.87S

$$
OHZ001>008-015>018-024>025-270800-
NORTHWEST OHIO

CITY           SKY/WX    TMP DP  RH WIND       PRES   REMARKS
WAUSEON*       DRIZZLE   52  52 100 SW8       29.87F
DEFIANCE       CLOUDY    51  49  92 SW7       29.89S
FINDLAY        CLOUDY    55  50  83 SW10      29.89F
TOLEDO EXPRESS MOCLDY    52  52 100 W9        29.87S
TOLEDO METCALF CLOUDY    54  53  97 SW8       29.88F
LIMA           MOCLDY    52  50  93 SW9       29.91F

$$
AND FOR LAKE MICHIGAN COASTAL AND OPEN LAKE BUOY OBSERVATIONS

STATION/POSITION TEMP    WIND        PRES    VSBY  WAVE
                 AIR SEA DIR/SP/G                  HT/PER
                 (F)     (DEG/KT/KT) (MB)    (MI)  (FT/S)
CALUMET HARBOR    50     220/  7/ 10 1011.5S
MICHIGAN CITY     48     220/ 12/ 13   N/A
BURNS HARBOR      50     230/  7/ 10 1012.9R

$$
&&




USA.gov is the U.S. government's official web portal to all federal, state and local government web resources and services.